When you browse on this site, cookies collect data to enhance your experience and personalize the content and advertising you see.
Visit our Privacy Policy to learn more. By continuing to use the site, you agree to this use of cookies and data.
  • In Romania
  • List of Countries
  • For 7 days
  • Water Temperature
  • Weather Map
  • Weather Widgets
  • user-avatar
    Login

    Hourly Weather Artashat

    Today, 7 June, Sunday

    Time Temperature Precipitation Wind Pressure Humidity
    00:00 +12°C° 0 mm 1 mps 604 mmHg 51%
    01:00 +10°C° 0 mm 0 mps 604 mmHg 53%
    02:00 +9°C° 0 mm 0 mps 603 mmHg 55%
    03:00 +9°C° 0 mm 0 mps 603 mmHg 57%
    04:00 +10°C° 0 mm 0 mps 604 mmHg 57%
    05:00 +11°C° 0 mm 0 mps 604 mmHg 57%
    06:00 +12°C° 0 mm 0 mps 605 mmHg 56%
    07:00 +14°C° 0 mm 1 mps 605 mmHg 52%
    08:00 +16°C° 0 mm 1 mps 606 mmHg 47%
    09:00 +18°C° 0 mm 1 mps 606 mmHg 42%
    10:00 +18°C° 0 mm 2 mps 606 mmHg 38%
    11:00 +19°C° 0 mm 2 mps 606 mmHg 35%
    12:00 +20°C° 0 mm 2 mps 607 mmHg 32%
    13:00 +21°C° 0 mm 2 mps 606 mmHg 30%
    14:00 +21°C° 0 mm 3 mps 606 mmHg 28%
    15:00 +22°C° 0 mm 3 mps 606 mmHg 26%
    16:00 +22°C° 0 mm 3 mps 606 mmHg 27%
    17:00 +21°C° 0 mm 3 mps 605 mmHg 27%
    18:00 +21°C° 0 mm 2 mps 605 mmHg 27%
    19:00 +19°C° 0 mm 2 mps 604 mmHg 31%
    20:00 +16°C° 0 mm 1 mps 604 mmHg 35%
    21:00 +13°C° 0 mm 0 mps 603 mmHg 39%
    22:00 +13°C° 0 mm 0 mps 603 mmHg 40%
    23:00 +12°C° 0 mm 0 mps 603 mmHg 41%

    Tomorrow, 8 June, Monday

    Time Temperature Precipitation Wind Pressure Humidity
    00:00 +11°C° 0 mm 0 mps 602 mmHg 41%
    01:00 +11°C° 0 mm 0 mps 602 mmHg 43%
    02:00 +10°C° 0 mm 0 mps 602 mmHg 45%
    03:00 +10°C° 0 mm 0 mps 601 mmHg 47%
    04:00 +11°C° 0 mm 0 mps 602 mmHg 49%
    05:00 +12°C° 0 mm 0 mps 602 mmHg 51%
    06:00 +13°C° 0 mm 0 mps 603 mmHg 53%
    07:00 +16°C° 0 mm 1 mps 603 mmHg 48%
    08:00 +18°C° 0 mm 1 mps 604 mmHg 43%
    09:00 +18°C° 0 mm 2 mps 604 mmHg 39%
    10:00 +20°C° 0 mm 2 mps 604 mmHg 36%
    11:00 +21°C° 0 mm 3 mps 605 mmHg 33%
    12:00 +22°C° 0 mm 3 mps 605 mmHg 29%
    13:00 +22°C° 0 mm 3 mps 605 mmHg 27%
    14:00 +24°C° 0 mm 3 mps 605 mmHg 25%
    15:00 +24°C° 0 mm 3 mps 604 mmHg 23%
    16:00 +24°C° 0 mm 3 mps 604 mmHg 24%
    17:00 +23°C° 0 mm 2 mps 604 mmHg 24%
    18:00 +23°C° 0 mm 2 mps 604 mmHg 25%
    19:00 +20°C° 0 mm 2 mps 603 mmHg 28%
    20:00 +19°C° 0 mm 1 mps 603 mmHg 30%
    21:00 +16°C° 0 mm 1 mps 602 mmHg 33%
    22:00 +15°C° 0 mm 1 mps 602 mmHg 36%
    23:00 +14°C° 0 mm 1 mps 602 mmHg 39%

    Day after tomorrow, 9 June, Tuesday

    Time Temperature Precipitation Wind Pressure Humidity
    00:00 +14°C° 0 mm 1 mps 601 mmHg 42%
    01:00 +12°C° 0 mm 0 mps 601 mmHg 45%
    02:00 +11°C° 0 mm 0 mps 601 mmHg 49%
    03:00 +11°C° 0 mm 0 mps 601 mmHg 52%
    04:00 +12°C° 0 mm 0 mps 601 mmHg 52%
    05:00 +13°C° 0 mm 0 mps 602 mmHg 52%
    06:00 +14°C° 0 mm 0 mps 603 mmHg 53%
    07:00 +18°C° 0 mm 1 mps 603 mmHg 47%
    08:00 +19°C° 0 mm 1 mps 604 mmHg 40%
    09:00 +20°C° 0 mm 2 mps 604 mmHg 34%
    10:00 +21°C° 0 mm 2 mps 605 mmHg 32%
    11:00 +23°C° 0 mm 2 mps 605 mmHg 30%
    12:00 +24°C° 0 mm 3 mps 605 mmHg 28%
    13:00 +25°C° 0 mm 3 mps 605 mmHg 27%
    14:00 +25°C° 0 mm 4 mps 605 mmHg 26%
    15:00 +26°C° 0 mm 4 mps 605 mmHg 25%
    16:00 +22°C° 0.5 mm 4 mps 604 mmHg 34%
    17:00 +20°C° 0.5 mm 4 mps 604 mmHg 42%
    18:00 +17°C° 0.5 mm 4 mps 603 mmHg 51%
    19:00 +17°C° 0 mm 3 mps 603 mmHg 53%
    20:00 +16°C° 0 mm 2 mps 603 mmHg 54%
    21:00 +15°C° 0 mm 1 mps 603 mmHg 56%
    22:00 +14°C° 0 mm 1 mps 603 mmHg 56%
    23:00 +14°C° 0 mm 1 mps 603 mmHg 55%

    10 June, Wednesday

    Time Temperature Precipitation Wind Pressure Humidity
    00:00 +14°C° 0 mm 1 mps 603 mmHg 55%
    01:00 +13°C° 0 mm 1 mps 603 mmHg 57%
    02:00 +12°C° 0 mm 0 mps 602 mmHg 59%
    03:00 +11°C° 0 mm 0 mps 602 mmHg 61%
    04:00 +12°C° 0 mm 0 mps 602 mmHg 60%
    05:00 +13°C° 0 mm 0 mps 603 mmHg 58%
    06:00 +14°C° 0 mm 0 mps 604 mmHg 57%
    07:00 +18°C° 0 mm 1 mps 604 mmHg 52%
    08:00 +19°C° 0 mm 1 mps 604 mmHg 47%
    09:00 +19°C° 0 mm 2 mps 605 mmHg 42%
    10:00 +21°C° 0 mm 2 mps 605 mmHg 39%
    11:00 +23°C° 0 mm 2 mps 605 mmHg 37%
    12:00 +24°C° 0 mm 3 mps 606 mmHg 34%
    13:00 +25°C° 0.1 mm 3 mps 606 mmHg 34%
    14:00 +25°C° 0.1 mm 3 mps 605 mmHg 33%
    15:00 +25°C° 0.1 mm 3 mps 605 mmHg 33%
    16:00 +21°C° 0.8 mm 4 mps 604 mmHg 40%
    17:00 +19°C° 0.8 mm 5 mps 603 mmHg 47%
    18:00 +16°C° 0.8 mm 5 mps 603 mmHg 54%
    19:00 +15°C° 0 mm 4 mps 603 mmHg 57%
    20:00 +15°C° 0 mm 2 mps 603 mmHg 60%
    21:00 +15°C° 0 mm 1 mps 603 mmHg 63%
    22:00 +15°C° 0 mm 1 mps 603 mmHg 63%
    23:00 +14°C° 0 mm 1 mps 603 mmHg 64%

    11 June, Thursday

    Time Temperature Precipitation Wind Pressure Humidity
    00:00 +13°C° 0 mm 0 mps 602 mmHg 64%
    01:00 +13°C° 0 mm 0 mps 602 mmHg 65%
    02:00 +12°C° 0 mm 0 mps 601 mmHg 66%
    03:00 +12°C° 0 mm 0 mps 601 mmHg 67%
    04:00 +12°C° 0 mm 0 mps 601 mmHg 65%
    05:00 +13°C° 0 mm 0 mps 602 mmHg 63%
    06:00 +15°C° 0 mm 1 mps 602 mmHg 62%
    07:00 +18°C° 0 mm 1 mps 602 mmHg 57%
    08:00 +19°C° 0 mm 1 mps 603 mmHg 52%
    09:00 +19°C° 0 mm 2 mps 603 mmHg 47%
    10:00 +21°C° 0 mm 2 mps 603 mmHg 43%
    11:00 +22°C° 0 mm 3 mps 604 mmHg 39%
    12:00 +25°C° 0 mm 3 mps 604 mmHg 36%
    13:00 +25°C° 0 mm 4 mps 603 mmHg 35%
    14:00 +25°C° 0 mm 4 mps 603 mmHg 35%
    15:00 +25°C° 0 mm 5 mps 603 mmHg 35%
    16:00 +22°C° 1 mm 4 mps 602 mmHg 41%
    17:00 +20°C° 1 mm 4 mps 602 mmHg 46%
    18:00 +18°C° 1 mm 3 mps 601 mmHg 52%
    19:00 +17°C° 0.3 mm 3 mps 601 mmHg 56%
    20:00 +16°C° 0.3 mm 2 mps 601 mmHg 60%
    21:00 +15°C° 0.3 mm 2 mps 601 mmHg 64%
    22:00 +14°C° 0 mm 1 mps 601 mmHg 65%
    23:00 +14°C° 0 mm 1 mps 600 mmHg 65%

    12 June, Friday

    Time Temperature Precipitation Wind Pressure Humidity
    00:00 +13°C° 0 mm 1 mps 600 mmHg 65%
    01:00 +12°C° 0 mm 0 mps 599 mmHg 66%
    02:00 +11°C° 0 mm 0 mps 599 mmHg 67%
    03:00 +11°C° 0 mm 0 mps 598 mmHg 68%
    04:00 +12°C° 0 mm 0 mps 598 mmHg 65%
    05:00 +13°C° 0 mm 0 mps 599 mmHg 63%
    06:00 +14°C° 0 mm 0 mps 599 mmHg 61%
    07:00 +16°C° 0 mm 1 mps 600 mmHg 56%
    08:00 +19°C° 0 mm 1 mps 600 mmHg 51%
    09:00 +19°C° 0 mm 2 mps 600 mmHg 45%
    10:00 +20°C° 0 mm 2 mps 600 mmHg 42%
    11:00 +21°C° 0 mm 3 mps 600 mmHg 38%
    12:00 +22°C° 0 mm 4 mps 600 mmHg 34%
    13:00 +22°C° 0.1 mm 4 mps 600 mmHg 34%
    14:00 +22°C° 0.1 mm 4 mps 600 mmHg 35%
    15:00 +22°C° 0.1 mm 4 mps 600 mmHg 35%
    16:00 +20°C° 0.6 mm 4 mps 599 mmHg 42%
    17:00 +18°C° 0.6 mm 4 mps 598 mmHg 49%
    18:00 +15°C° 0.6 mm 4 mps 598 mmHg 56%
    19:00 +14°C° 0.1 mm 3 mps 598 mmHg 59%
    20:00 +14°C° 0.1 mm 3 mps 598 mmHg 62%
    21:00 +13°C° 0.1 mm 3 mps 598 mmHg 64%
    22:00 +14°C° 0 mm 2 mps 598 mmHg 65%
    23:00 +14°C° 0 mm 1 mps 598 mmHg 66%
    Show more